Tracking 25372 objects as of 24-Jan-2022
HD Live streaming from Space Station
objects crossing your sky now

STARLINK-2713

Track STARLINK-2713 now!
10-day predictions
STARLINK-2713 is classified as:


NORAD ID: 48602
Int'l Code: 2021-041BB
Perigee: 553.1 km
Apogee: 556.1 km
Inclination: 53.1 °
Period: 95.6 minutes
Semi major axis: 6925 km
RCS: Unknown
Launch date: May 15, 2021
Source: United States (US)
Launch site: AIR FORCE EASTERN TEST RANGE (AFETR)
aabbcc
Your satellite tracking list
Your tracking list is empty




NASA's NSSDC Master Catalog

Two Line Element Set (TLE):
1 48602U 21041BB  22023.45233045  .00021278  00000-0  14460-2 0  9990
2 48602  53.0529  38.3851 0002121  71.2676 288.8543 15.06322906 39643
Source of the keplerian elements: AFSPC